Погода в Кырене

Россия / Республика Бурятия     51°40′56″N   102°07′50″E
темп.,
°C
ветер,
м/с
пор.,
м/с
влажн.,
%
обл.,
%
осадки,
мм/ч
давл.,
гПа
погр.,
м
15 мая, сб
сб1523:00+4зюз01515 0.0 101612
02:00+2юз014813 0.0 101711
05:00+2в1147100 0.0 101710
08:00+6всв234462 0.0 1018267
11:00+10всв33499 0.0 10181218
14:00+12всв534896 0.1 10171160
17:00+14ююз133385 0.0 10141564
20:00+11зсз114893 0.0 101515
16 мая, вс
вс1623:00+7зюз11585 0.0 101814
02:00+5з016119 0.0 101812
05:00+4ю11625 0.0 101713
08:00+10ююз134886 0.0 1014302
11:00+17вюв133497 0.0 10121326
14:00+19в333377 0.0 10101490
17:00+20ссз2528100 0.0 10082532
20:00+14всв2457100 0.0 1009105
17 мая, пн
пн1723:00+9сз117859 0.0 100912
02:00+8ююз117599 0.0 100711
05:00+8юз116993 0.0 100412
08:00+14юз1451100 0.0 1002378
11:00+10св5875100 0.4 1007669
14:00+6всв3586100 1.7 1011534
17:00+6всв3386100 0.5 1012673
20:00+5св1289100 0.9 1014323
18 мая, вт
вт1823:00+5ссв2392100 0.0 1015131
02:00+4св2392100 0.5 1016383
05:00+4ссв1296100 0.3 1015191
08:00+3зсз0195100 0.4 1015223
11:00+6в0184100 0.0 1013409
14:00+13всв115451 0.0 1007922
17:00+15в224692 0.0 10041029
20:00+12ююв1166100 0.0 100211
19 мая, ср
ср1923:00+8сз117697 0.0 100110
02:00+6юв0175100 0.0 99911
05:00+6св117598 0.0 99915
08:00+8всв2474100 0.1 1000255
11:00+8св238596 0.2 1002289
14:00+12св226794 0.3 999936
17:00+11св567095 0.1 1001812
20:00+7всв3685100 0.3 1004465